Вернуться в каталог

USA 237

АктивенВоенныеGEO
NORAD 38528·PAYLOAD·🇺🇸 United States

Запущен Jun 29, 2012 с Cape Canaveral Space Force Station

Loading…

TLE

СвежийSource: Mike McCants

Эпоха: Sep 14, 2026, 04:23 UTC

1 38528U 12034A   26257.18264212  .00000000  00000-0  00000-0 0    07
2 38528   7.5407  58.9720 0041082 338.0082  21.8176  1.00271606  2630

Отслеживайте USA 237 в реальном времени с AllMySat

Download on the App Store